Temperature
27 28 28 29 29 28 28 28 27 27 26 26 25 25 23 21 21 20 19 19 19 19 18 18 18 18 18 17 17 17 17 17 17 16 16 16 15 15 14 14 13 13 12 12
28 29 29 29 28 28 28 27 27 26 25 25 25 24 23 22 21 20 20 19 19 19 19 18 18 18 18 18 17 17 17 17 17 16 16 16 15 14 14 13 12 12 12 12
28 29 29 28 28 28 28 28 27 26 25 25 25 24 23 22 21 20 20 20 20 20 20 19 19 18 18 18 18 17 17 17 17 16 15 15 15 14 14 13 13 12 11 11
29 29 28 28 28 28 28 28 27 26 26 26 25 24 23 23 22 22 21 21 21 21 20 20 20 19 19 18 18 17 17 17 17 16 15 15 15 14 14 13 12 12 11 11
29 29 28 28 28 28 27 27 27 26 26 26 25 26 25 24 23 23 22 22 22 21 21 20 20 20 19 19 18 18 17 17 17 16 16 15 14 14 14 13 12 11 11 11
29 29 29 28 28 27 26 26 26 27 27 26 25 25 25 25 25 24 24 23 22 22 21 21 20 20 19 19 18 18 17 17 17 16 15 15 14 13 13 12 12 12 12 11
29 29 29 28 28 27 27 27 27 27 27 26 25 26 26 26 26 26 25 24 23 22 22 21 21 20 19 19 18 18 17 17 16 16 15 14 14 13 12 12 12 11 12 12
28 28 29 29 29 28 28 28 26 26 26 27 26 26 27 26 25 25 25 24 23 23 23 22 21 21 20 19 18 18 17 17 16 16 15 14 14 13 13 12 12 12 11 11
28 28 29 28 29 28 28 28 28 27 27 26 26 26 27 26 26 25 25 24 24 23 23 22 22 21 20 19 18 18 17 16 16 15 14 14 13 13 12 12 11 11 11 11
29 28 29 28 28 27 28 28 27 27 25 26 26 26 27 27 27 26 26 25 25 24 23 22 22 21 20 19 18 17 17 16 15 15 14 14 13 12 12 12 11 11 11 10
29 28 28 29 28 28 27 27 27 27 27 26 26 27 28 28 27 27 27 26 25 24 23 22 21 20 19 19 18 17 17 16 15 14 14 13 13 12 12 11 11 11 10 10
28 28 28 28 28 28 28 28 27 26 26 26 26 27 28 28 28 27 27 26 25 24 23 22 21 20 19 19 18 17 16 16 15 14 14 13 13 12 11 11 11 10 10 10
27 27 27 27 27 27 28 28 27 27 26 26 26 27 28 27 27 26 26 25 24 23 22 21 20 20 19 19 18 17 17 16 15 14 14 13 12 12 11 11 11 10 10 10
27 27 27 27 27 28 28 28 27 27 27 27 27 27 28 28 27 27 26 25 24 22 22 21 20 20 19 18 18 17 17 16 15 14 14 13 12 12 11 11 10 10 10 10
27 27 28 28 28 28 28 28 28 27 27 27 27 27 28 28 28 27 26 24 23 22 21 21 20 20 19 18 18 17 17 16 15 14 14 13 12 12 11 11 10 10 10 9
26 26 27 27 28 28 27 27 27 27 27 27 27 27 29 28 26 26 25 24 23 22 22 21 21 20 19 19 18 17 17 16 15 14 14 13 12 12 11 10 10 10 9 9
27 26 26 26 28 27 26 27 27 27 28 27 27 28 28 27 27 26 25 24 24 23 22 22 21 20 20 19 18 17 17 16 15 14 14 13 12 12 11 10 10 10 9 9
26 25 26 26 26 25 27 29 28 27 28 28 27 28 28 27 26 25 24 24 24 23 23 22 21 21 20 19 18 18 17 16 15 14 14 13 12 12 11 10 10 10 9 9
25 25 26 26 26 26 28 28 28 27 27 28 28 28 27 26 25 26 25 24 24 23 23 22 22 21 20 19 18 17 16 16 15 14 14 13 12 12 11 11 10 10 9 9
24 24 25 25 25 24 27 27 27 27 26 28 27 27 27 26 26 27 26 25 24 23 23 22 21 21 20 19 18 18 16 16 15 14 13 13 12 12 12 11 11 10 9 9
25 24 25 25 25 26 27 26 26 26 25 26 26 26 26 26 26 26 25 25 24 23 22 22 21 20 20 19 19 18 17 16 15 14 14 13 13 12 12 11 11 10 9 9
26 26 25 25 25 25 26 26 26 24 24 24 24 24 24 24 24 24 24 23 23 22 22 21 20 20 19 19 19 18 17 16 15 15 14 13 13 12 11 11 11 10 9 8
26 26 26 26 26 25 24 23 22 22 22 22 22 23 23 23 23 23 23 22 22 21 21 20 20 19 19 19 18 18 17 16 15 15 14 13 13 12 12 11 10 9 8 8
26 24 25 25 26 24 22 20 19 19 19 20 20 21 21 22 22 21 21 20 20 20 19 19 19 18 18 18 17 17 16 16 15 15 14 13 13 12 11 10 9 9 9 8
24 24 24 24 24 23 20 18 18 17 18 18 18 19 19 19 19 19 19 18 18 18 18 18 17 17 16 16 17 16 16 15 15 14 14 13 12 12 11 10 10 9 9 8
22 22 23 23 20 20 18 17 17 17 17 17 17 17 17 17 17 17 17 17 17 17 16 16 16 16 16 16 16 16 15 15 15 14 13 12 12 11 11 10 10 10 9 9
Wind_Speed
5 7 6 5 6 7 7 6 4 1 1 3 3 4 7 7 7 6 5 4 5 6 7 7 7 7 7 7 7 6 5 5 4 2 2 2 2 3 4 4 6 7 8 8
6 6 5 4 4 5 6 6 1 3 2 2 3 4 6 7 7 7 7 8 7 7 8 9 9 9 9 8 8 7 7 6 5 3 2 1 3 3 4 4 4 6 7 8
9 6 4 5 4 5 4 5 2 3 5 4 4 6 6 7 7 7 9 10 10 10 10 11 11 10 10 9 9 8 8 7 6 4 4 3 3 4 4 5 4 6 7 7
5 3 5 6 3 5 3 2 1 5 5 2 3 2 6 8 9 10 11 11 11 11 11 11 11 11 11 10 10 9 9 8 7 6 6 6 6 7 6 6 5 6 6 6
4 4 5 4 3 4 3 2 3 4 3 2 1 2 5 8 9 11 13 13 13 12 12 12 12 11 10 10 10 9 9 9 8 7 6 6 7 6 6 6 5 7 5 5
4 2 3 2 3 2 6 4 5 6 6 1 2 3 4 6 9 11 13 13 13 12 12 12 11 10 9 9 9 9 9 8 8 8 7 7 6 6 7 7 7 7 6 5
3 3 3 3 4 5 5 5 4 3 2 3 2 3 2 6 8 10 11 12 13 12 12 11 11 10 10 9 8 7 7 7 7 7 7 6 6 6 7 8 7 7 7 6
4 2 2 2 4 2 2 6 6 6 6 2 2 1 3 6 8 8 9 10 11 12 11 11 10 9 8 7 7 6 6 6 6 7 6 6 6 7 6 6 7 8 7 7
4 2 3 1 1 3 2 3 5 4 4 3 2 1 3 7 9 11 11 11 11 11 10 9 8 8 7 6 6 6 6 6 6 6 6 6 7 7 7 7 8 8 7 7
4 6 2 3 5 2 3 0 2 5 5 4 0 1 1 6 9 11 12 11 11 10 9 8 7 7 6 6 6 5 6 6 6 6 7 6 7 8 8 9 9 9 9 9
3 5 3 4 5 3 4 3 3 4 5 6 4 2 3 3 6 9 11 11 10 10 9 8 8 7 7 6 6 6 6 6 6 7 7 7 8 9 9 9 10 10 10 10
2 5 6 3 1 1 4 3 4 6 5 5 7 3 6 4 5 7 8 9 9 9 9 9 9 8 7 7 7 6 6 6 6 7 7 8 9 9 10 10 10 10 10 11
3 4 7 4 6 6 4 3 4 5 7 8 9 4 7 5 6 7 9 9 10 10 10 10 9 8 7 7 6 6 6 6 6 7 8 9 9 10 10 11 11 10 11 11
4 6 8 8 6 4 6 6 6 8 11 10 10 10 5 5 6 8 9 9 10 11 11 11 9 8 7 7 6 6 6 6 6 7 8 9 10 10 11 11 11 11 11 11
5 10 10 10 8 7 10 11 9 10 12 13 12 11 9 6 5 6 7 9 10 11 12 11 10 9 8 7 7 6 6 6 6 7 9 9 10 10 11 11 11 11 11 12
4 9 11 12 10 9 11 10 8 8 8 10 11 11 6 2 4 6 7 10 12 12 12 12 11 10 9 8 8 7 7 6 6 8 9 9 9 10 10 11 11 11 12 12
6 7 10 12 8 9 10 6 5 6 6 8 10 9 6 4 5 6 8 10 12 12 12 12 12 11 9 9 8 7 7 6 7 8 9 9 9 10 10 11 11 12 12 12
7 8 7 10 7 10 5 1 5 8 9 8 9 9 6 5 5 6 8 10 11 12 12 12 12 11 10 9 8 7 7 6 7 8 8 9 9 10 10 11 11 12 11 12
6 7 7 8 10 9 7 3 4 7 10 7 6 7 6 3 6 10 10 11 12 12 12 12 12 11 10 10 9 8 7 7 8 8 8 9 9 10 10 11 11 11 11 12
5 7 7 7 9 9 5 4 1 5 8 4 5 8 9 5 10 9 3 8 12 13 12 12 12 11 11 11 10 9 9 8 8 8 7 8 8 9 11 11 11 11 11 12
5 5 8 9 9 8 4 4 2 6 7 11 11 11 11 10 12 12 8 7 9 11 12 12 12 12 12 11 11 10 10 9 8 7 7 8 8 9 10 11 10 11 11 12
8 6 6 6 8 4 7 4 6 10 13 13 14 14 13 14 15 14 12 9 9 10 11 12 11 12 11 12 12 12 11 9 7 6 7 8 9 9 9 10 11 11 11 12
7 6 5 5 6 6 7 7 9 11 12 13 14 15 14 13 13 13 11 9 9 9 9 9 11 11 11 12 12 12 10 8 7 7 8 8 9 9 9 10 11 11 10 10
4 1 4 6 4 5 9 11 12 11 11 12 12 12 11 11 11 10 9 7 7 7 7 7 8 10 10 10 11 10 8 8 8 9 9 8 9 9 10 9 10 10 10 10
4 2 5 7 3 3 9 13 13 12 12 12 13 13 12 10 10 10 9 8 7 6 5 4 5 7 7 7 8 9 9 9 9 9 9 9 9 9 9 10 10 11 10 10
3 3 5 3 5 5 6 10 11 12 13 14 14 15 15 14 14 13 11 10 10 9 7 5 3 4 5 6 7 9 9 10 11 10 10 9 8 7 9 10 10 12 14 13
Wind_Direction
217 250 275 316 302 303 301 296 304 78 151 227 215 187 163 169 177 169 167 178 185 174 161 165 179 182 180 179 180 181 184 173 192 205 250 295 329 342 348 357 12 357 354 352
247 261 318 317 288 269 265 270 242 137 155 231 185 171 163 176 184 178 177 188 192 181 180 185 192 196 198 195 198 200 205 205 214 206 247 290 319 317 331 338 351 346 346 338
281 329 341 284 276 277 276 292 293 167 164 181 192 165 169 178 186 185 189 191 193 193 191 192 198 203 206 209 211 214 215 215 220 217 234 237 252 273 296 324 327 339 331 327
281 312 293 286 298 300 324 18 217 179 206 163 239 210 165 179 186 191 193 196 199 198 198 200 203 209 215 219 219 220 221 222 220 222 246 269 290 303 318 313 321 321 312 316
300 310 299 303 356 326 43 102 173 198 225 195 219 281 135 173 184 192 197 199 199 199 203 208 214 219 224 227 227 224 225 227 225 229 235 249 274 294 302 307 306 305 310 308
285 272 291 14 57 103 139 162 184 212 230 222 36 298 133 168 179 181 189 193 197 200 206 212 220 224 230 231 231 229 225 226 223 227 233 247 272 284 295 298 305 303 307 307
233 196 174 186 170 158 223 278 275 248 248 59 91 284 101 144 171 178 182 188 194 200 207 212 219 222 224 227 228 229 223 224 221 224 231 240 256 267 268 281 294 298 304 309
269 221 163 209 281 297 289 310 330 329 343 28 155 316 114 155 171 183 190 189 193 201 206 212 216 219 222 221 217 215 213 216 216 223 230 238 249 263 274 276 290 294 296 306
307 315 114 125 270 287 268 316 350 300 300 299 68 116 160 175 191 194 195 195 199 204 207 211 211 214 208 202 199 203 205 215 224 234 234 243 251 264 277 278 268 277 285 288
308 294 182 153 168 88 328 292 279 309 326 320 334 222 118 178 197 198 200 202 201 198 201 201 199 191 184 183 184 194 206 222 236 241 248 254 257 258 262 270 281 285 285 282
287 284 261 215 247 254 186 214 276 294 311 310 320 10 101 182 198 202 204 203 199 198 196 188 180 175 176 182 189 199 211 227 241 253 256 265 267 268 266 265 270 275 279 281
253 292 296 269 134 290 260 273 260 287 295 282 298 317 128 186 203 213 216 203 199 196 190 180 174 177 187 198 204 211 226 241 252 260 263 266 269 270 269 270 273 275 276 276
192 265 280 223 184 192 225 234 266 283 281 276 281 307 131 180 217 220 224 211 197 192 188 183 182 191 201 208 216 227 240 255 264 265 267 270 272 271 269 274 277 277 276 277
233 263 284 304 318 303 279 264 248 266 275 280 278 292 282 239 230 225 218 214 202 194 191 192 194 201 209 213 218 232 248 261 268 271 273 275 277 278 277 276 277 276 277 279
239 259 262 273 281 280 287 292 283 265 274 283 293 296 300 294 253 233 218 207 202 199 198 200 206 208 210 214 219 230 245 255 265 272 277 281 282 282 280 279 277 277 277 278
238 270 272 266 262 266 275 281 282 277 273 276 283 287 301 300 234 223 215 210 209 208 208 209 213 216 216 217 222 228 239 250 258 269 278 286 288 287 286 285 282 280 278 280
239 254 264 268 263 262 265 267 279 286 286 286 290 305 324 290 251 239 231 223 223 220 217 217 219 220 218 216 216 223 234 246 257 268 277 285 288 290 290 290 289 285 284 283
241 248 258 267 263 261 275 295 289 293 294 289 287 293 293 285 279 258 244 237 234 229 226 224 224 220 214 209 208 215 226 238 256 268 278 286 289 291 293 291 289 289 287 287
230 228 248 260 260 263 269 256 266 286 294 301 299 298 290 284 273 258 233 227 234 233 230 229 228 224 210 207 204 208 226 240 256 268 278 287 292 293 293 291 291 291 289 287
177 215 242 248 269 275 299 53 350 279 276 350 332 309 302 273 284 304 302 217 228 232 231 228 225 219 205 201 198 208 227 240 254 269 279 286 287 288 290 291 292 291 288 285
204 209 237 254 264 271 27 50 252 270 342 355 332 316 303 285 282 303 300 250 232 233 232 227 222 216 208 196 193 209 226 238 251 262 270 276 280 282 283 286 286 285 285 286
260 254 242 258 267 299 54 359 328 337 335 328 322 314 307 295 288 290 287 272 253 245 238 228 220 218 207 195 195 210 224 233 239 248 261 270 275 279 283 283 282 282 282 283
248 294 295 280 296 13 19 357 351 340 326 323 319 316 310 300 295 296 293 285 276 267 259 243 230 224 212 202 202 214 222 223 228 238 251 262 270 272 275 276 278 277 274 277
214 97 276 274 281 8 28 22 9 360 347 338 336 332 328 318 318 321 323 320 309 295 280 261 243 234 223 212 211 216 216 213 223 238 250 257 263 268 269 271 272 275 278 280
331 268 267 260 306 7 42 23 16 17 19 20 21 19 13 9 6 5 4 1 353 341 322 291 260 248 236 215 212 216 214 211 221 235 246 254 260 266 274 271 269 274 277 281
356 307 286 334 26 359 25 24 25 32 34 32 33 35 34 32 30 29 27 21 16 11 4 350 315 279 255 227 222 221 216 211 220 234 242 250 257 263 269 275 276 244 240 252
Height
1522 1519 1512 1510 1509 1511 1511 1512 1514 1516 1518 1517 1519 1522 1527 1531 1534 1536 1538 1540 1542 1543 1545 1546 1548 1550 1551 1552 1553 1554 1555 1555 1556 1556 1557 1556 1555 1553 1551 1549 1545 1543 1541 1539
1517 1512 1509 1510 1510 1511 1510 1512 1512 1518 1519 1518 1520 1523 1526 1530 1532 1534 1536 1539 1541 1543 1545 1546 1548 1550 1551 1552 1552 1553 1554 1555 1555 1555 1554 1553 1552 1551 1549 1547 1544 1541 1539 1537
1513 1508 1509 1509 1508 1509 1507 1508 1510 1515 1519 1518 1519 1525 1527 1529 1532 1534 1536 1538 1539 1541 1543 1545 1547 1549 1550 1551 1552 1553 1553 1553 1553 1553 1552 1551 1550 1549 1548 1546 1543 1540 1537 1535
1508 1507 1508 1507 1506 1506 1507 1507 1509 1513 1515 1516 1518 1525 1524 1524 1528 1531 1534 1536 1537 1540 1542 1544 1545 1547 1548 1549 1550 1550 1550 1550 1550 1550 1550 1550 1549 1547 1545 1543 1541 1538 1535 1533
1506 1506 1507 1507 1507 1506 1509 1508 1508 1510 1511 1513 1515 1517 1519 1520 1524 1526 1529 1532 1534 1537 1539 1541 1543 1545 1546 1547 1548 1548 1548 1548 1547 1547 1546 1546 1545 1544 1543 1540 1538 1535 1533 1530
1505 1507 1506 1506 1508 1508 1510 1510 1509 1507 1504 1517 1518 1518 1520 1514 1517 1519 1524 1528 1531 1534 1536 1539 1540 1542 1543 1544 1544 1545 1544 1544 1544 1543 1543 1542 1541 1540 1538 1537 1535 1534 1532 1529
1506 1504 1505 1506 1506 1509 1508 1509 1513 1514 1514 1517 1516 1515 1515 1510 1512 1515 1519 1524 1528 1531 1533 1535 1537 1538 1539 1540 1541 1542 1541 1541 1541 1540 1539 1538 1537 1536 1534 1534 1533 1531 1529 1528
1510 1510 1502 1503 1503 1504 1505 1506 1518 1527 1521 1513 1513 1515 1508 1508 1512 1516 1518 1521 1524 1527 1529 1531 1533 1535 1536 1537 1538 1538 1538 1538 1537 1537 1536 1534 1533 1533 1533 1531 1529 1528 1526 1524
1506 1508 1502 1503 1503 1503 1504 1503 1502 1510 1512 1515 1511 1509 1504 1507 1510 1513 1515 1518 1521 1523 1526 1528 1530 1532 1533 1534 1535 1535 1535 1535 1534 1534 1532 1531 1530 1529 1528 1527 1525 1524 1522 1520
1502 1509 1500 1503 1503 1506 1503 1503 1506 1510 1523 1522 1515 1511 1507 1505 1505 1507 1511 1514 1517 1520 1523 1525 1527 1529 1530 1531 1531 1532 1532 1531 1531 1530 1529 1529 1527 1525 1524 1523 1522 1520 1518 1516
1502 1508 1502 1500 1502 1501 1507 1507 1506 1505 1510 1520 1520 1511 1494 1498 1500 1502 1506 1510 1513 1516 1519 1522 1524 1526 1527 1528 1528 1528 1528 1528 1527 1526 1525 1524 1523 1522 1520 1519 1517 1516 1514 1512
1503 1503 1505 1500 1498 1500 1499 1501 1505 1513 1513 1511 1513 1507 1491 1495 1497 1500 1502 1506 1510 1513 1516 1519 1521 1523 1524 1525 1526 1526 1525 1525 1524 1523 1521 1520 1519 1517 1516 1515 1513 1511 1509 1507
1504 1507 1511 1505 1505 1502 1499 1500 1501 1504 1507 1508 1511 1504 1493 1495 1497 1500 1502 1504 1508 1511 1514 1516 1518 1520 1521 1522 1522 1523 1522 1522 1521 1520 1518 1516 1515 1514 1512 1510 1509 1506 1504 1502
1505 1503 1508 1513 1506 1498 1499 1497 1498 1503 1504 1503 1501 1496 1490 1491 1494 1496 1499 1502 1505 1508 1510 1513 1514 1516 1517 1518 1518 1518 1519 1518 1517 1516 1514 1512 1511 1509 1507 1505 1503 1501 1499 1497
1504 1501 1498 1495 1493 1494 1496 1495 1494 1498 1498 1500 1495 1492 1487 1487 1490 1493 1496 1499 1502 1505 1507 1509 1511 1512 1513 1514 1514 1514 1514 1514 1513 1511 1510 1509 1507 1504 1502 1500 1498 1496 1493 1491
1502 1502 1498 1498 1492 1493 1495 1492 1491 1492 1492 1492 1491 1490 1483 1487 1490 1492 1494 1496 1498 1500 1502 1505 1506 1508 1509 1510 1510 1511 1510 1510 1509 1507 1506 1504 1502 1500 1497 1495 1493 1490 1488 1485
1497 1501 1502 1500 1489 1493 1498 1488 1488 1488 1486 1487 1489 1485 1483 1485 1488 1489 1491 1492 1494 1496 1498 1500 1502 1503 1504 1505 1506 1506 1506 1505 1504 1503 1501 1500 1497 1495 1492 1490 1487 1485 1482 1480
1498 1500 1498 1495 1497 1510 1490 1480 1482 1485 1483 1481 1482 1482 1483 1485 1487 1487 1488 1489 1490 1492 1494 1495 1497 1499 1500 1500 1501 1501 1501 1501 1500 1499 1497 1495 1493 1490 1487 1484 1482 1479 1476 1474
1495 1497 1496 1495 1499 1496 1483 1477 1480 1483 1483 1477 1479 1480 1481 1483 1484 1482 1482 1484 1486 1487 1489 1491 1492 1494 1495 1495 1496 1496 1496 1496 1495 1494 1493 1491 1488 1485 1482 1479 1476 1473 1470 1467
1496 1496 1494 1495 1503 1505 1486 1479 1481 1483 1485 1476 1479 1480 1479 1481 1480 1475 1477 1480 1481 1482 1484 1485 1487 1488 1488 1489 1490 1491 1491 1491 1491 1490 1488 1485 1482 1480 1477 1474 1470 1468 1464 1461
1491 1494 1493 1492 1496 1486 1478 1481 1482 1490 1487 1481 1481 1480 1479 1478 1478 1477 1476 1476 1477 1478 1479 1480 1481 1481 1482 1483 1484 1484 1485 1485 1485 1484 1482 1480 1477 1474 1471 1468 1465 1462 1459 1456
1485 1486 1489 1489 1495 1490 1482 1481 1484 1487 1485 1484 1482 1481 1479 1477 1475 1474 1474 1473 1473 1473 1474 1474 1474 1475 1476 1476 1477 1478 1479 1479 1479 1478 1476 1474 1472 1469 1467 1464 1460 1457 1454 1451
1481 1480 1480 1483 1485 1484 1486 1488 1489 1489 1487 1484 1481 1479 1477 1474 1472 1471 1470 1470 1469 1469 1469 1469 1469 1469 1469 1470 1471 1472 1473 1474 1473 1472 1471 1469 1467 1464 1461 1458 1455 1453 1450 1447
1477 1484 1483 1484 1480 1484 1488 1489 1490 1488 1486 1483 1480 1477 1474 1472 1469 1468 1467 1466 1465 1465 1465 1464 1464 1464 1464 1464 1465 1467 1468 1468 1468 1467 1465 1463 1461 1459 1456 1453 1451 1449 1446 1443
1481 1482 1482 1483 1483 1486 1489 1492 1490 1488 1485 1482 1479 1476 1474 1471 1469 1467 1465 1464 1462 1461 1460 1459 1458 1458 1459 1459 1460 1462 1462 1462 1461 1460 1459 1458 1456 1454 1451 1448 1445 1443 1440 1438
1486 1486 1484 1483 1491 1491 1494 1493 1491 1489 1486 1484 1481 1478 1476 1473 1470 1468 1466 1464 1462 1460 1458 1457 1455 1455 1456 1455 1455 1456 1456 1455 1455 1454 1453 1452 1450 1448 1446 1443 1440 1436 1433 1430